Weather in Tsudakhar

Russia / Republic of Dagestan     42°20′32″N   47°09′33″E
temp.,
°C
wind,
m/s
gust,
m/s
humid.,
%
clouds,
%
prec.,
mm/h
press.,
hPa
HPBL,
m
2 july, sat
sat200:00+11ssw119193 0.4 101411
03:00+11ssw118821 0.4 101210
06:00+13sse118210 0.0 101176
09:00+16ne217643 0.6 1010752
12:00+13ene2288100 4.6 1011429
15:00+10nne2297100 9.4 1012273
18:00+10nne1195100 0.9 1013192
21:00+9w1194100 1.8 1015104
3 july, sun
sun300:00+9wsw2190100 0.0 101436
03:00+7sw218422 0.0 101311
06:00+9w12751 0.0 101485
09:00+12nnw32635 0.0 1013712
12:00+14n225364 0.0 10141300
15:00+15nnw2355100 0.0 10131643
18:00+11se1280100 0.2 1015122
21:00+10wsw117499 0.3 101611
4 july, mon
mon400:00+9sw228174 0.4 101627
03:00+6ssw228839 0.4 101716
06:00+9sw128088 0.1 1017148
09:00+13nnw226417 0.2 10161209
12:00+14nnw225891 0.1 10161358
15:00+14nne236224 0.3 1016918
18:00+14ne01655 0.0 1016664
21:00+9s227718 0.1 101816
5 july, tue
tue500:00+8ssw22794 0.0 101810
03:00+7ssw22802 0.0 101816
06:00+10ssw22740 0.0 101861
09:00+15nnw21620 0.0 1017945
12:00+17n325615 0.0 10161607
15:00+17nne225280 0.1 10161464
18:00+14e117926 0.3 101771
21:00+10s11854 0.4 101910
6 july, wed
wed600:00+9ssw118811 0.0 101910
03:00+9ssw118925 0.0 101910
06:00+11sw118518 0.0 101984
09:00+15nne217235 0.2 1018949
12:00+16ene2269100 0.4 1018941
15:00+15ene227553 0.6 1018749
18:00+14se238052 0.1 1019251
21:00+10s22900 0.1 102015